EW4052 Weather Reports


time (UTC)temp
F
wind
direction
speed
knots
gust
knots
rain 1hr
in
rain 24hr
in
rain mn
in
humidity
%
barometer
mb
20260504034507 55 241 0.0 0.0 0.00 0.00 0.00 46 1004.6
20260504033006 56 241 0.0 0.0 0.00 0.00 0.00 46 1004.8
20260504031504 56 241 0.0 0.0 0.00 0.00 0.00 45 1004.9
20260504030004 57 241 0.0 0.0 0.00 0.00 0.00 44 1004.9
20260504024504 57 242 0.0 0.0 0.00 0.00 0.00 43 1004.9
20260504023003 57 242 0.0 0.0 0.00 0.00 0.00 44 1004.9
20260504021501 58 242 0.0 0.0 0.00 0.00 0.00 46 1004.9
20260504020001 60 242 0.0 0.0 0.00 0.00 0.00 39 1005.0
20260504014604 61 242 0.0 0.0 0.00 0.00 0.00 40 1004.9
20260504013112 63 242 0.0 0.9 0.00 0.00 0.00 40 1005.0
20260504011559 64 242 0.0 0.0 0.00 0.00 0.00 41 1005.0
20260504010114 65 242 0.9 3.5 0.00 0.00 0.00 47 1005.0
20260504004557 65 246 2.6 7.0 0.00 0.00 0.00 49 1005.1
20260504003055 66 246 4.3 8.7 0.00 0.00 0.00 46 1005.0
20260504001602 67 253 7.0 10.4 0.00 0.00 0.00 41 1005.0
20260504000057 68 242 8.7 16.5 0.00 0.00 0.00 35 1005.0
20260503234553 69 251 12.2 17.4 0.00 0.00 0.00 39 1005.0
20260503233100 69 242 7.8 14.8 0.00 0.00 0.00 38 1005.3
20260503231550 69 269 7.0 13.0 0.00 0.00 0.00 35 1005.2
20260503230049 69 247 11.3 14.8 0.00 0.00 0.00 33 1005.3
20260503224549 69 246 7.8 17.4 0.00 0.00 0.00 37 1005.4
20260503223048 70 261 6.1 17.4 0.00 0.00 0.00 34 1005.3
20260503221650 69 251 10.4 14.8 0.00 0.00 0.00 36 1005.3
20260503220057 69 261 10.4 13.9 0.00 0.00 0.00 33 1005.2
20260503214545 70 248 9.6 16.5 0.00 0.00 0.00 31 1005.4
20260503213043 70 280 8.7 18.2 0.00 0.00 0.00 36 1005.5
20260503211542 69 253 11.3 18.2 0.00 0.00 0.00 32 1005.5
20260503210050 70 259 10.4 19.1 0.00 0.00 0.00 35 1005.6
20260503204555 70 272 10.4 18.2 0.00 0.00 0.00 35 1005.7
20260503203038 70 255 10.4 18.2 0.00 0.00 0.00 34 1005.8
20260503201538 69 255 10.4 19.1 0.00 0.00 0.00 37 1005.9
20260503200043 69 265 10.4 18.2 0.00 0.00 0.00 35 1005.9
20260503194534 69 284 9.6 18.2 0.00 0.00 0.00 38 1006.0
20260503193034 70 269 13.9 20.9 0.00 0.00 0.00 35 1005.9
20260503191530 69 280 12.2 18.2 0.00 0.00 0.00 34 1006.0
20260503190042 69 280 13.9 20.0 0.00 0.00 0.00 35 1006.2
20260503184529 68 271 15.6 20.0 0.00 0.00 0.00 36 1006.1
20260503183025 68 284 8.7 19.1 0.00 0.00 0.00 39 1006.3
20260503181521 67 252 11.3 21.7 0.00 0.00 0.00 40 1006.4
20260503180021 68 264 13.9 19.1 0.00 0.00 0.00 41 1006.4
20260503174518 67 284 13.0 24.3 0.00 0.00 0.00 41 1006.6
20260503173016 67 284 12.2 17.4 0.00 0.00 0.00 42 1006.6
20260503171513 66 306 14.8 20.9 0.00 0.00 0.00 43 1006.5
20260503110119 47 13 0.0 0.0 0.00 0.00 0.00 65 1006.5
20260503090104 52 5 1.7 4.3 0.00 0.00 0.00 51 1008.7
20260503081559 52 199 0.0 2.6 0.00 0.00 0.00 51 1008.4
20260503071545 52 240 0.0 3.5 0.00 0.00 0.00 59 1010.6
20260503054539 54 146 0.0 7.0 0.00 0.00 0.00 47 1010.7
20260503053032 53 201 0.0 5.2 0.00 0.00 0.00 51 1010.7
20260503051530 53 290 0.0 3.5 0.00 0.00 0.00 48 1011.0
20260503050028 53 108 0.0 4.3 0.00 0.00 0.00 48 1011.3
20260503044538 53 212 0.0 4.3 0.00 0.00 0.00 46 1011.3
20260503043025 54 236 0.0 3.5 0.00 0.00 0.00 47 1011.3
20260503041524 54 155 0.0 4.3 0.00 0.00 0.00 47 1011.4
20260503040022 54 147 0.0 1.7 0.00 0.00 0.00 47 1011.7